�������l�o���
Date,Time,MP-1(��Sv/h),MP-2(��Sv/h),MP-3(��Sv/h),MP-4(��Sv/h),MP-5(��Sv/h),MP-6(��Sv/h),MP-7(��Sv/h),MP-8(��Sv/h),����,����(m/s),���J
2019/03/19,00:00,0.770,1.129,0.776,1.435,1.035,0.438,0.777,0.735,��쐼,7.1,��
2019/03/19,00:10,0.769,1.132,0.777,1.436,1.035,0.438,0.777,0.736,��쐼,6.3,��
2019/03/19,00:20,0.767,1.129,0.774,1.434,1.033,0.439,0.775,0.737,��쐼,5.6,��
2019/03/19,00:30,0.769,1.129,0.775,1.434,1.034,0.438,0.776,0.736,�쐼,4.2,��
2019/03/19,00:40,0.767,1.128,0.776,1.435,1.033,0.438,0.777,0.738,�쐼,4.5,��
2019/03/19,00:50,0.768,1.129,0.776,1.437,1.034,0.438,0.778,0.737,�쐼,4.7,��
2019/03/19,01:00,0.767,1.133,0.775,1.434,1.033,0.439,0.776,0.736,��쐼,4.8,��
2019/03/19,01:10,0.769,1.130,0.774,1.436,1.035,0.439,0.776,0.735,��쐼,4.8,��
2019/03/19,01:20,0.768,1.132,0.776,1.437,1.035,0.439,0.776,0.738,��쐼,5.2,��
2019/03/19,01:30,0.768,1.132,0.776,1.435,1.036,0.440,0.779,0.737,��쐼,5.7,��
2019/03/19,01:40,0.769,1.130,0.777,1.437,1.033,0.439,0.778,0.735,�쐼,4.7,��
2019/03/19,01:50,0.768,1.131,0.776,1.435,1.033,0.438,0.777,0.735,�쐼,4.5,��
2019/03/19,02:00,0.771,1.134,0.774,1.437,1.034,0.438,0.777,0.736,�쐼,4.4,��
2019/03/19,02:10,0.769,1.134,0.776,1.436,1.033,0.439,0.777,0.736,�쐼,4.8,��
2019/03/19,02:20,0.768,1.132,0.776,1.439,1.032,0.439,0.778,0.736,��쐼,5.2,��
2019/03/19,02:30,0.768,1.135,0.776,1.435,1.034,0.437,0.777,0.737,��쐼,5.7,��
2019/03/19,02:40,0.768,1.132,0.773,1.438,1.036,0.439,0.776,0.736,��쐼,6.1,��
2019/03/19,02:50,0.769,1.133,0.778,1.436,1.034,0.439,0.778,0.736,��쐼,6.4,��
2019/03/19,03:00,0.769,1.131,0.775,1.435,1.034,0.440,0.778,0.736,��쐼,6.7,��
2019/03/19,03:10,0.769,1.137,0.777,1.436,1.034,0.439,0.777,0.737,��쐼,7.4,��
2019/03/19,03:20,0.768,1.133,0.779,1.437,1.035,0.438,0.778,0.737,��쐼,7.7,��
2019/03/19,03:30,0.768,1.133,0.777,1.436,1.037,0.438,0.778,0.738,��쐼,6.1,��
2019/03/19,03:40,0.767,1.131,0.777,1.436,1.036,0.441,0.779,0.738,��쐼,4.7,��
2019/03/19,03:50,0.770,1.133,0.776,1.436,1.035,0.439,0.779,0.736,��쐼,4.8,��
2019/03/19,04:00,0.768,1.132,0.776,1.437,1.036,0.439,0.776,0.736,��쐼,5.4,��
2019/03/19,04:10,0.768,1.132,0.776,1.438,1.036,0.439,0.777,0.736,��쐼,4.2,��
2019/03/19,04:20,0.769,1.132,0.777,1.437,1.034,0.438,0.779,0.736,��쐼,3.2,��
2019/03/19,04:30,0.768,1.133,0.774,1.439,1.035,0.440,0.778,0.735,�쐼,1.5,��
2019/03/19,04:40,0.770,1.132,0.776,1.438,1.033,0.439,0.776,0.737,���쐼,1.2,��
2019/03/19,04:50,0.769,1.132,0.775,1.436,1.034,0.439,0.777,0.738,���쐼,2.2,��
2019/03/19,05:00,0.768,1.134,0.775,1.436,1.035,0.439,0.777,0.737,���쐼,1.5,��
2019/03/19,05:10,0.769,1.131,0.776,1.436,1.033,0.438,0.777,0.736,���k��,2.0,��
2019/03/19,05:20,0.768,1.131,0.776,1.439,1.034,0.440,0.777,0.737,���k��,1.1,��
2019/03/19,05:30,0.769,1.133,0.775,1.437,1.033,0.439,0.778,0.736,���k��,1.7,��
2019/03/19,05:40,0.768,1.132,0.776,1.435,1.035,0.439,0.778,0.736,���k��,2.0,��
2019/03/19,05:50,0.767,1.132,0.776,1.434,1.034,0.438,0.777,0.735,��,2.3,��
2019/03/19,06:00,0.767,1.131,0.774,1.435,1.035,0.440,0.774,0.735,��,1.9,��
2019/03/19,06:10,0.770,1.132,0.776,1.435,1.033,0.441,0.776,0.735,���쐼,1.5,��
2019/03/19,06:20,0.770,1.132,0.775,1.434,1.034,0.438,0.775,0.734,�쐼,2.2,��
2019/03/19,06:30,0.769,1.131,0.774,1.435,1.035,0.440,0.778,0.737,�쐼,3.1,��
2019/03/19,06:40,0.769,1.130,0.776,1.437,1.033,0.438,0.776,0.735,��쐼,4.1,��
2019/03/19,06:50,0.768,1.131,0.774,1.436,1.034,0.440,0.777,0.734,��쐼,4.8,��
2019/03/19,07:00,0.769,1.131,0.775,1.436,1.035,0.438,0.777,0.738,��쐼,4.6,��
2019/03/19,07:10,0.770,1.130,0.775,1.437,1.036,0.440,0.778,0.738,��쐼,4.7,��
2019/03/19,07:20,0.768,1.132,0.776,1.438,1.034,0.441,0.777,0.737,��쐼,4.9,��
2019/03/19,07:30,0.771,1.133,0.776,1.436,1.033,0.440,0.777,0.736,��쐼,4.3,��
2019/03/19,07:40,0.769,1.132,0.776,1.437,1.035,0.438,0.778,0.734,��쐼,3.1,��
2019/03/19,07:50,0.771,1.134,0.778,1.437,1.036,0.440,0.780,0.738,�쐼,2.5,��
2019/03/19,08:00,0.769,1.133,0.774,1.438,1.034,0.439,0.780,0.739,�쐼,1.9,��
2019/03/19,08:10,0.769,1.130,0.776,1.438,1.033,0.440,0.778,0.737,���쐼,0.9,��
2019/03/19,08:20,0.770,1.131,0.778,1.440,1.036,0.440,0.779,0.737,-,CALM,��
2019/03/19,08:30,0.770,1.130,0.776,1.438,1.036,0.439,0.776,0.738,�k�k��,1.7,��
2019/03/19,08:40,0.771,1.130,0.776,1.435,1.034,0.440,0.779,0.737,�k�k��,2.6,��
2019/03/19,08:50,0.769,1.131,0.777,1.437,1.037,0.439,0.778,0.739,�k�k��,2.5,��
2019/03/19,09:00,0.772,1.132,0.777,1.438,1.036,0.439,0.776,0.737,�k�k��,2.0,��
2019/03/19,09:10,0.771,1.129,0.778,1.439,1.036,0.440,0.775,0.739,�k�k��,3.6,��
2019/03/19,09:20,0.770,1.127,0.778,1.438,1.037,0.438,0.776,0.738,�k��,4.1,��
2019/03/19,09:30,0.769,1.129,0.777,1.438,1.036,0.439,0.776,0.735,�k��,4.3,��
2019/03/19,09:40,0.770,1.129,0.777,1.438,1.036,0.438,0.775,0.736,�k��,3.6,��
2019/03/19,09:50,0.771,1.126,0.778,1.438,1.038,0.441,0.776,0.736,�k��,3.7,��
2019/03/19,10:00,0.769,1.130,0.775,1.436,1.037,0.440,0.775,0.736,���k��,3.4,��
2019/03/19,10:10,0.770,1.127,0.774,1.437,1.036,0.440,0.774,0.734,�k�k��,3.0,��
2019/03/19,10:20,0.768,1.128,0.778,1.435,1.037,0.440,0.775,0.734,�k�k��,3.8,��
2019/03/19,10:30,0.769,1.130,0.777,1.436,1.035,0.440,0.775,0.734,�k��,3.2,��
2019/03/19,10:40,0.768,1.127,0.776,1.436,1.036,0.438,0.777,0.734,���k��,2.9,��
2019/03/19,10:50,0.769,1.130,0.775,1.438,1.035,0.438,0.775,0.734,�k�k��,2.6,��
2019/03/19,11:00,0.770,1.131,0.775,1.440,1.037,0.438,0.773,0.733,�k�k��,3.4,��
2019/03/19,11:10,0.766,1.129,0.778,1.435,1.033,0.437,0.775,0.736,�k��,2.5,��
2019/03/19,11:20,0.771,1.132,0.777,1.437,1.035,0.438,0.776,0.735,���k��,2.9,��
2019/03/19,11:30,0.770,1.129,0.778,1.438,1.038,0.438,0.776,0.736,���k��,3.2,��
2019/03/19,11:40,0.769,1.130,0.777,1.438,1.036,0.438,0.775,0.734,�k��,2.6,��
2019/03/19,11:50,0.768,1.132,0.779,1.439,1.037,0.439,0.777,0.735,���k��,2.5,��
2019/03/19,12:00,0.772,1.133,0.777,1.439,1.037,0.438,0.777,0.736,��,2.3,��
2019/03/19,12:10,0.770,1.131,0.776,1.441,1.038,0.437,0.776,0.736,���k��,2.3,��
2019/03/19,12:20,0.769,1.131,0.778,1.439,1.040,0.440,0.776,0.736,���k��,2.3,��
2019/03/19,12:30,0.770,1.130,0.777,1.440,1.036,0.441,0.777,0.737,���k��,2.3,��
2019/03/19,12:40,0.771,1.130,0.776,1.442,1.038,0.441,0.778,0.735,���쓌,2.3,��
2019/03/19,12:50,0.769,1.130,0.776,1.440,1.037,0.440,0.779,0.735,���k��,3.2,��
2019/03/19,13:00,0.769,1.130,0.773,1.441,1.038,0.441,0.777,0.737,���쓌,2.6,��
2019/03/19,13:10,0.772,1.134,0.775,1.439,1.038,0.442,0.778,0.736,�쓌,3.1,��
2019/03/19,13:20,0.771,1.130,0.775,1.441,1.039,0.440,0.778,0.737,��쓌,2.6,��
2019/03/19,13:30,0.770,1.128,0.778,1.439,1.040,0.440,0.779,0.734,��쓌,3.2,��
2019/03/19,13:40,0.771,1.132,0.778,1.441,1.038,0.440,0.779,0.734,��쓌,2.5,��
2019/03/19,13:50,0.769,1.131,0.776,1.441,1.037,0.440,0.779,0.735,��쓌,4.0,��
2019/03/19,14:00,0.765,1.132,0.777,1.441,1.039,0.440,0.779,0.736,��쓌,3.0,��
2019/03/19,14:10,0.768,1.135,0.777,1.440,1.041,0.440,0.778,0.736,��쓌,3.4,��
2019/03/19,14:20,0.768,1.133,0.779,1.444,1.038,0.438,0.779,0.735,��쓌,4.2,��
2019/03/19,14:30,0.762,1.132,0.777,1.441,1.038,0.439,0.777,0.737,��쓌,5.1,��
2019/03/19,14:40,0.761,1.134,0.777,1.440,1.040,0.440,0.776,0.735,��쓌,6.9,��
2019/03/19,14:50,0.762,1.132,0.777,1.441,1.038,0.440,0.779,0.736,��쓌,6.2,��
2019/03/19,15:00,0.764,1.133,0.776,1.441,1.038,0.440,0.779,0.735,��쓌,5.7,��
2019/03/19,15:10,0.767,1.136,0.778,1.441,1.039,0.441,0.779,0.737,��쓌,5.3,��
2019/03/19,15:20,0.764,1.138,0.779,1.441,1.042,0.440,0.778,0.734,�쓌,3.7,��
2019/03/19,15:30,0.767,1.137,0.778,1.441,1.038,0.441,0.781,0.737,��쓌,4.9,��
2019/03/19,15:40,0.769,1.136,0.779,1.443,1.041,0.441,0.780,0.735,��쓌,3.8,��
2019/03/19,15:50,0.770,1.137,0.778,1.441,1.041,0.442,0.779,0.735,��쓌,3.8,��
2019/03/19,16:00,0.772,1.136,0.777,1.441,1.043,0.440,0.780,0.735,��쓌,5.2,��
2019/03/19,16:10,0.772,1.140,0.780,1.443,1.042,0.442,0.779,0.736,��쓌,5.6,��
2019/03/19,16:20,0.772,1.139,0.777,1.442,1.042,0.442,0.779,0.737,��쓌,4.1,��
2019/03/19,16:30,0.772,1.141,0.777,1.442,1.040,0.442,0.780,0.737,��,4.2,��
2019/03/19,16:40,0.770,1.140,0.778,1.443,1.043,0.444,0.778,0.736,-,-,��
2019/03/19,16:50,0.772,1.141,0.778,1.444,1.040,0.443,0.779,0.738,-,-,-
2019/03/19,17:00,0.770,1.140,0.779,1.443,1.041,0.442,0.778,0.738,-,-,-
2019/03/19,17:10,0.771,1.144,0.779,1.441,1.038,0.445,0.778,0.739,-,-,-
2019/03/19,17:20,0.773,1.142,0.781,1.441,1.041,0.443,0.778,0.738,-,-,-
2019/03/19,17:30,0.775,1.141,0.785,1.443,1.040,0.443,0.780,0.738,-,-,-
2019/03/19,17:40,0.774,1.141,0.781,1.440,1.040,0.444,0.780,0.738,-,-,-
2019/03/19,17:50,0.776,1.140,0.779,1.444,1.041,0.443,0.780,0.739,-,-,-
2019/03/19,18:00,0.773,1.141,0.779,1.441,1.044,0.442,0.780,0.737,�쓌,0.9,��
2019/03/19,18:10,0.773,1.143,0.779,1.440,1.042,0.442,0.780,0.739,��,0.8,��
2019/03/19,18:20,0.772,1.141,0.778,1.442,1.042,0.443,0.779,0.738,���쓌,0.8,��
2019/03/19,18:30,0.774,1.141,0.779,1.441,1.043,0.441,0.778,0.737,��,0.8,��
2019/03/19,18:40,0.774,1.139,0.781,1.442,1.045,0.443,0.779,0.737,�k��,0.9,��
2019/03/19,18:50,0.773,1.140,0.780,1.441,1.043,0.442,0.780,0.738,�k�k��,1.5,��
2019/03/19,19:00,0.773,1.142,0.781,1.441,1.041,0.441,0.780,0.737,�k��,1.5,��
2019/03/19,19:10,0.772,1.142,0.780,1.441,1.042,0.442,0.780,0.738,�k�k��,1.1,��
2019/03/19,19:20,0.772,1.138,0.780,1.440,1.043,0.440,0.779,0.738,-,CALM,��
2019/03/19,19:30,0.772,1.137,0.780,1.445,1.042,0.442,0.780,0.736,�k�k��,0.9,��
2019/03/19,19:40,0.773,1.139,0.779,1.442,1.043,0.442,0.779,0.736,�k,1.7,��
2019/03/19,19:50,0.773,1.138,0.779,1.438,1.042,0.442,0.779,0.737,�k,2.0,��
2019/03/19,20:00,0.772,1.142,0.781,1.440,1.042,0.442,0.778,0.737,�k,2.8,��
2019/03/19,20:10,0.771,1.139,0.779,1.443,1.042,0.441,0.778,0.735,�k,2.0,��
2019/03/19,20:20,0.771,1.138,0.782,1.439,1.041,0.440,0.779,0.737,�k�k��,1.7,��
2019/03/19,20:30,0.772,1.133,0.780,1.441,1.040,0.440,0.780,0.737,�k��,2.2,��
2019/03/19,20:40,0.775,1.136,0.780,1.438,1.043,0.442,0.777,0.736,�k��,2.2,��
2019/03/19,20:50,0.771,1.134,0.779,1.440,1.041,0.441,0.779,0.735,�k��,1.2,��
2019/03/19,21:00,0.771,1.136,0.779,1.440,1.043,0.439,0.778,0.737,���k��,1.1,��
2019/03/19,21:10,0.772,1.135,0.779,1.440,1.040,0.440,0.779,0.737,�k��,1.1,��
2019/03/19,21:20,0.770,1.134,0.777,1.441,1.041,0.441,0.779,0.737,�k�k��,2.3,��
2019/03/19,21:30,0.772,1.133,0.778,1.438,1.040,0.440,0.779,0.738,�k�k��,3.5,��
2019/03/19,21:40,0.772,1.134,0.779,1.443,1.041,0.440,0.779,0.738,�k,3.9,��
2019/03/19,21:50,0.772,1.136,0.780,1.440,1.041,0.440,0.779,0.737,�k,3.3,��
2019/03/19,22:00,0.772,1.134,0.778,1.441,1.041,0.441,0.778,0.737,�k�k��,3.4,��
2019/03/19,22:10,0.774,1.135,0.780,1.440,1.042,0.440,0.778,0.736,�k�k��,4.4,��
2019/03/19,22:20,0.771,1.135,0.780,1.442,1.040,0.440,0.780,0.736,�k�k��,4.4,��
2019/03/19,22:30,0.770,1.136,0.779,1.442,1.043,0.440,0.779,0.738,�k�k��,3.5,��
2019/03/19,22:40,0.769,1.133,0.778,1.441,1.041,0.439,0.779,0.738,�k�k��,2.8,��
2019/03/19,22:50,0.771,1.137,0.780,1.441,1.041,0.441,0.777,0.738,�k�k��,2.8,��
2019/03/19,23:00,0.771,1.135,0.778,1.442,1.039,0.441,0.777,0.738,�k�k��,3.0,��
2019/03/19,23:10,0.771,1.133,0.778,1.441,1.041,0.441,0.778,0.737,�k�k��,2.9,��
2019/03/19,23:20,0.770,1.134,0.780,1.440,1.040,0.439,0.778,0.736,�k��,3.1,��
2019/03/19,23:30,0.772,1.136,0.781,1.442,1.043,0.440,0.779,0.739,�k��,2.6,��
2019/03/19,23:40,0.771,1.132,0.779,1.443,1.041,0.438,0.779,0.736,���k��,1.2,��
2019/03/19,23:50,0.772,1.135,0.779,1.442,1.043,0.441,0.778,0.737,���k��,2.0,��
